Hillsdale, MI

7:03 PM EDT on August 28, 2016 (GMT -0400)
Hillsdale Municipal

Weather History for KJYM - May, 2013

Change the Weather History Date:

Friday, May 17, 2013

  Actual Average Record
Temperature  
Mean Temperature 64 °F -  
Max Temperature 77 °F 69 °F 90 °F (1962)
Min Temperature 51 °F 46 °F 28 °F (1973)
Degree Days  
Heating Degree Days 1    
Growing Degree Days 14 (Base 50)    
Moisture  
Dew Point 41 °F    
Average Humidity 44    
Maximum Humidity 60    
Minimum Humidity 29    
Precipitation  
Precipitation 0.00 in - - ()
Sea Level Pressure  
Sea Level Pressure 30.08 in    
Wind  
Wind Speed 9 mph (East)    
Max Wind Speed 15 mph    
Max Gust Speed 20 mph    
Visibility 10 miles    
Events      
Averages and records for this station are not official NWS values.
T = Trace of Precipitation, MM = Missing Value Source: NWS Daily Summary

Daily Weather History Graph

Daily Weather History Graph

Search for Another Location

Airport or City:

Trip Planner

Search our weather history database for the weather conditions in past years. The results will help you decide how hot, cold, wet, or windy it might be!

Date:

Astronomy

May. 17, 2013 Rise Set
Actual Time 6:15 AM EDT 8:54 PM EDT
Civil Twilight 5:43 AM EDT 9:26 PM EDT
Nautical Twilight 5:03 AM EDT 10:06 PM EDT
Astronomical Twilight 4:18 AM EDT 10:52 PM EDT
Moon 12:50 PM EDT (5/17) 1:43 AM EDT (5/17)
Length of Visible Light 15h 42m
Length of Day
14h 38m
Waxing Crescent, 45% of the Moon is Illuminated
May 17
Waxing Crescent
May 18
First Quarter
May 25
Full
May 31
Last Quarter
Jun 8
New

Hourly Weather History & Observations

Time (EDT) Temp. Dew Point Humidity Pressure Visibility Wind Dir Wind Speed Gust Speed Precip Events Conditions
12:15 AM 65.5 °F 43.9 °F 46% 30.01 in 10.0 mi NE 4.6 mph - N/A   Clear
12:35 AM 63.1 °F 44.4 °F 50% 30.01 in 10.0 mi ENE 6.9 mph - N/A   Clear
12:54 AM 62.1 °F 44.8 °F 53% 30.02 in 10.0 mi East 11.5 mph - N/A   Clear
1:15 AM 62.2 °F 42.8 °F 49% 30.02 in 10.0 mi East 8.1 mph - N/A   Clear
1:35 AM 61.2 °F 42.8 °F 51% 30.02 in 10.0 mi East 8.1 mph - N/A   Clear
1:54 AM 59.4 °F 43.2 °F 55% 30.02 in 10.0 mi East 8.1 mph - N/A   Clear
2:15 AM 58.5 °F 41.4 °F 53% 30.03 in 10.0 mi ENE 5.8 mph 9.2 mph N/A   Clear
2:35 AM 57.4 °F 40.6 °F 54% 30.03 in 10.0 mi ENE 6.9 mph - N/A   Clear
2:54 AM 56.7 °F 38.3 °F 50% 30.03 in 10.0 mi ENE 6.9 mph - N/A   Clear
3:15 AM 55.4 °F 38.8 °F 54% 30.03 in 10.0 mi ENE 6.9 mph - N/A   Clear
3:34 AM 54.0 °F 39.4 °F 58% 30.03 in 10.0 mi ENE 10.4 mph - N/A   Clear
3:54 AM 54.0 °F 38.3 °F 55% 30.04 in 10.0 mi East 8.1 mph - N/A   Clear
4:15 AM 52.7 °F 37.9 °F 57% 30.05 in 10.0 mi East 5.8 mph - N/A   Clear
4:34 AM 51.6 °F 37.9 °F 60% 30.04 in 10.0 mi East 6.9 mph - N/A   Clear
4:55 AM 52.5 °F 37.8 °F 57% 30.04 in 10.0 mi East 5.8 mph - N/A   Clear
5:15 AM 52.5 °F 37.4 °F 56% 30.05 in 10.0 mi East 6.9 mph - N/A   Clear
5:34 AM 53.1 °F 36.7 °F 54% 30.05 in 10.0 mi East 8.1 mph - N/A   Clear
5:55 AM 53.2 °F 36.0 °F 52% 30.06 in 10.0 mi East 5.8 mph - N/A   Clear
6:15 AM 53.8 °F 35.6 °F 50% 30.07 in 10.0 mi ESE 8.1 mph - N/A   Clear
6:34 AM 54.1 °F 35.4 °F 49% 30.07 in 10.0 mi East 10.4 mph - N/A   Clear
6:55 AM 54.0 °F 36.0 °F 51% 30.08 in 10.0 mi East 10.4 mph - N/A   Clear
7:15 AM 54.3 °F 36.9 °F 52% 30.08 in 10.0 mi East 10.4 mph - N/A   Clear
7:34 AM 54.0 °F 37.8 °F 54% 30.08 in 10.0 mi ESE 10.4 mph 18.4 mph N/A   Clear
8:15 AM 56.7 °F 38.8 °F 51% 30.09 in 10.0 mi ESE 11.5 mph - N/A   Clear
8:34 AM 58.3 °F 39.7 °F 50% 30.10 in 10.0 mi ESE 6.9 mph - N/A   Clear
8:55 AM 59.4 °F 39.0 °F 47% 30.11 in 10.0 mi ESE 9.2 mph - N/A   Clear
9:14 AM 60.1 °F 39.6 °F 47% 30.11 in 10.0 mi East 10.4 mph - N/A   Clear
9:34 AM 62.1 °F 40.3 °F 45% 30.12 in 10.0 mi East 10.4 mph - N/A   Clear
9:55 AM 63.0 °F 39.4 °F 42% 30.12 in 10.0 mi East 15.0 mph 19.6 mph N/A   Clear
10:14 AM 64.2 °F 39.6 °F 40% 30.11 in 10.0 mi East 13.8 mph - N/A   Clear
10:34 AM 64.9 °F 39.6 °F 39% 30.11 in 10.0 mi ESE 12.7 mph 18.4 mph N/A   Clear
10:55 AM 66.2 °F 41.2 °F 40% 30.11 in 10.0 mi ESE 11.5 mph 18.4 mph N/A   Clear
11:14 AM 67.6 °F 41.9 °F 39% 30.11 in 10.0 mi East 11.5 mph 17.3 mph N/A   Scattered Clouds
11:35 AM 68.7 °F 42.4 °F 39% 30.11 in 10.0 mi East 9.2 mph - N/A   Clear
11:55 AM 69.4 °F 42.8 °F 38% 30.11 in 10.0 mi ESE 9.2 mph - N/A   Clear
12:14 PM 70.2 °F 42.6 °F 37% 30.11 in 10.0 mi ESE 11.5 mph - N/A   Clear
12:35 PM 71.4 °F 42.6 °F 35% 30.11 in 10.0 mi East 11.5 mph - N/A   Clear
1:14 PM 74.5 °F 42.4 °F 32% 30.11 in 10.0 mi East 11.5 mph 18.4 mph N/A   Clear
1:35 PM 74.5 °F 41.9 °F 31% 30.11 in 10.0 mi East 12.7 mph - N/A   Clear
1:54 PM 75.2 °F 41.5 °F 30% 30.10 in 10.0 mi East 10.4 mph 16.1 mph N/A   Clear
2:14 PM 75.2 °F 42.1 °F 30% 30.10 in 10.0 mi East 11.5 mph 16.1 mph N/A   Clear
2:35 PM 74.3 °F 42.4 °F 32% 30.10 in 10.0 mi East 11.5 mph - N/A   Clear
3:14 PM 75.7 °F 42.3 °F 30% 30.10 in 10.0 mi East 11.5 mph 17.3 mph N/A   Clear
3:35 PM 76.3 °F 42.1 °F 29% 30.09 in 10.0 mi ENE 10.4 mph - N/A   Clear
3:54 PM 76.6 °F 42.1 °F 29% 30.09 in 10.0 mi East 12.7 mph 16.1 mph N/A   Clear
4:15 PM 76.8 °F 42.6 °F 29% 30.08 in 10.0 mi ESE 10.4 mph - N/A   Clear
4:35 PM 77.0 °F 43.0 °F 30% 30.07 in 10.0 mi ESE 13.8 mph - N/A   Clear
4:54 PM 76.5 °F 42.8 °F 30% 30.07 in 10.0 mi East 12.7 mph 19.6 mph N/A   Clear
5:15 PM 76.3 °F 43.2 °F 31% 30.07 in 10.0 mi East 10.4 mph - N/A   Clear
5:34 PM 75.7 °F 42.8 °F 31% 30.07 in 7.0 mi ESE 11.5 mph - N/A   Clear
5:55 PM 75.6 °F 43.2 °F 31% 30.08 in 10.0 mi ESE 9.2 mph 19.6 mph N/A   Clear
6:14 PM 74.8 °F 42.8 °F 32% 30.08 in 10.0 mi East 13.8 mph - N/A   Scattered Clouds
6:34 PM 74.1 °F 43.9 °F 34% 30.07 in 10.0 mi East 11.5 mph 19.6 mph N/A   Mostly Cloudy
6:55 PM 72.7 °F 44.6 °F 37% 30.08 in 10.0 mi East 13.8 mph 18.4 mph N/A   Mostly Cloudy
7:14 PM 71.6 °F 45.7 °F 39% 30.09 in 10.0 mi East 10.4 mph 17.3 mph N/A   Overcast
7:35 PM 70.3 °F 45.0 °F 40% 30.09 in 10.0 mi East 12.7 mph 17.3 mph N/A   Mostly Cloudy
7:55 PM 68.9 °F 43.7 °F 40% 30.10 in 10.0 mi ESE 12.7 mph 19.6 mph N/A   Scattered Clouds
8:14 PM 67.8 °F 42.8 °F 40% 30.10 in 10.0 mi East 11.5 mph 17.3 mph N/A   Mostly Cloudy
8:35 PM 67.3 °F 41.7 °F 39% 30.10 in 10.0 mi East 15.0 mph - N/A   Overcast
8:55 PM 66.4 °F 41.2 °F 40% 30.11 in 10.0 mi East 12.7 mph - N/A   Scattered Clouds
9:14 PM 65.1 °F 41.2 °F 42% 30.12 in 10.0 mi ESE 13.8 mph - N/A   Clear
9:35 PM 64.0 °F 41.7 °F 44% 30.12 in 10.0 mi ESE 9.2 mph 18.4 mph N/A   Clear
9:54 PM 62.6 °F 42.1 °F 47% 30.12 in 10.0 mi ESE 9.2 mph - N/A   Clear
10:14 PM 61.2 °F 42.1 °F 50% 30.12 in 10.0 mi East 11.5 mph 16.1 mph N/A   Clear
10:35 PM 60.3 °F 41.9 °F 51% 30.13 in 10.0 mi East 9.2 mph - N/A   Clear
10:54 PM 59.4 °F 41.7 °F 52% 30.14 in 10.0 mi SE 5.8 mph - N/A   Clear
11:14 PM 58.6 °F 41.4 °F 53% 30.14 in 10.0 mi SE 5.8 mph - N/A   Clear
11:35 PM 57.6 °F 41.7 °F 56% 30.15 in 10.0 mi East 5.8 mph - N/A   Clear
11:54 PM 57.6 °F 41.2 °F 54% 30.14 in 10.0 mi ESE 8.1 mph - N/A   Clear